Time,TemperatureF,DewpointF,PressureIn,WindDirection,WindDirectionDegrees,WindSpeedMPH,WindSpeedGustMPH,Humidity,HourlyPrecipIn,Conditions,Clouds,dailyrainin,SolarRadiationWatts/m^2,SoftwareType,DateUTC
2013-04-20 00:01:00,28.0,16.0,-100.00,NNW,335,1.0,4.0,58,0.00,,,0.00,0.000000,,2013-04-20 08:01:00,
2013-04-20 00:11:00,28.0,16.0,-100.00,NNW,335,1.0,4.0,58,0.00,,,0.00,0.000000,,2013-04-20 08:11:00,
2013-04-20 00:21:00,28.0,16.0,-100.00,NNW,335,1.0,4.0,58,0.00,,,0.00,0.000000,,2013-04-20 08:21:00,
2013-04-20 00:42:00,28.0,16.0,-100.00,NW,323,1.0,5.0,58,0.00,,,0.00,0.000000,,2013-04-20 08:42:00,
2013-04-20 00:52:00,28.0,16.0,-100.00,NW,323,1.0,5.0,58,0.00,,,0.00,0.000000,,2013-04-20 08:52:00,
2013-04-20 01:01:00,28.0,16.0,-100.00,NW,323,1.0,5.0,58,0.00,,,0.00,0.000000,,2013-04-20 09:01:00,
2013-04-20 01:11:00,28.0,16.0,-100.00,NW,323,1.0,5.0,58,0.00,,,0.00,0.000000,,2013-04-20 09:11:00,
2013-04-20 01:21:00,28.0,16.0,-100.00,NW,323,1.0,5.0,58,0.00,,,0.00,0.000000,,2013-04-20 09:21:00,
2013-04-20 01:43:00,28.0,15.0,-100.00,NW,321,2.0,4.0,57,0.00,,,0.00,0.000000,,2013-04-20 09:43:00,
2013-04-20 01:53:00,28.0,15.0,-100.00,NW,321,2.0,4.0,57,0.00,,,0.00,0.000000,,2013-04-20 09:53:00,
2013-04-20 02:02:00,28.0,15.0,-100.00,NW,321,2.0,4.0,57,0.00,,,0.00,0.000000,,2013-04-20 10:02:00,
2013-04-20 02:12:00,28.0,15.0,-100.00,NW,321,2.0,4.0,57,0.00,,,0.00,0.000000,,2013-04-20 10:12:00,
2013-04-20 02:22:00,28.0,15.0,-100.00,NW,321,2.0,4.0,57,0.00,,,0.00,0.000000,,2013-04-20 10:22:00,
2013-04-20 02:42:00,28.0,15.0,-100.00,NNW,337,1.0,3.0,57,0.00,,,-99.99,0.000000,,2013-04-20 10:42:00,
2013-04-20 02:53:00,28.0,15.0,-100.00,NNW,337,1.0,3.0,57,0.00,,,-99.99,0.000000,,2013-04-20 10:53:00,
2013-04-20 03:02:00,28.0,15.0,-100.00,NNW,337,1.0,3.0,57,0.00,,,-99.99,0.000000,,2013-04-20 11:02:00,
2013-04-20 03:12:00,28.0,15.0,-100.00,NNW,337,1.0,3.0,57,0.00,,,-99.99,0.000000,,2013-04-20 11:12:00,
2013-04-20 03:22:00,28.0,15.0,-100.00,NNW,337,1.0,3.0,57,0.00,,,-99.99,0.000000,,2013-04-20 11:22:00,
2013-04-20 03:42:00,28.0,13.0,-100.00,WNW,294,3.0,5.0,53,0.00,,,0.00,0.000000,,2013-04-20 11:42:00,
2013-04-20 03:52:00,28.0,13.0,-100.00,WNW,294,3.0,5.0,53,0.00,,,0.00,0.000000,,2013-04-20 11:52:00,
2013-04-20 04:02:00,28.0,13.0,-100.00,WNW,294,3.0,5.0,53,0.00,,,0.00,0.000000,,2013-04-20 12:02:00,
2013-04-20 04:11:00,28.0,13.0,-100.00,WNW,294,3.0,5.0,53,0.00,,,0.00,0.000000,,2013-04-20 12:11:00,
2013-04-20 04:22:00,28.0,13.0,-100.00,WNW,294,3.0,5.0,53,0.00,,,0.00,0.000000,,2013-04-20 12:22:00,
2013-04-20 04:42:00,27.0,12.0,-100.00,West,276,2.0,6.0,54,0.00,,,0.00,0.000000,,2013-04-20 12:42:00,
2013-04-20 04:52:00,27.0,12.0,-100.00,West,276,2.0,6.0,54,0.00,,,0.00,0.000000,,2013-04-20 12:52:00,
2013-04-20 05:02:00,27.0,12.0,-100.00,West,276,2.0,6.0,54,0.00,,,0.00,0.000000,,2013-04-20 13:02:00,
2013-04-20 05:11:00,27.0,12.0,-100.00,West,276,2.0,6.0,54,0.00,,,0.00,0.000000,,2013-04-20 13:11:00,
2013-04-20 05:21:00,27.0,12.0,-100.00,West,276,2.0,6.0,54,0.00,,,0.00,0.000000,,2013-04-20 13:21:00,
2013-04-20 05:42:00,27.0,12.0,-100.00,West,277,2.0,5.0,53,0.00,,,0.00,0.000000,,2013-04-20 13:42:00,
2013-04-20 05:52:00,27.0,12.0,-100.00,West,277,2.0,5.0,53,0.00,,,0.00,0.000000,,2013-04-20 13:52:00,
2013-04-20 06:02:00,27.0,12.0,-100.00,West,277,2.0,5.0,53,0.00,,,0.00,0.000000,,2013-04-20 14:02:00,
2013-04-20 06:11:00,27.0,12.0,-100.00,West,277,2.0,5.0,53,0.00,,,0.00,0.000000,,2013-04-20 14:11:00,
2013-04-20 06:21:00,27.0,12.0,-100.00,West,277,2.0,5.0,53,0.00,,,0.00,0.000000,,2013-04-20 14:21:00,
2013-04-20 06:42:00,27.0,11.0,-100.00,WNW,302,2.0,5.0,52,0.00,,,0.00,4.000000,,2013-04-20 14:42:00,
2013-04-20 06:52:00,27.0,11.0,-100.00,WNW,302,2.0,5.0,52,0.00,,,0.00,4.000000,,2013-04-20 14:52:00,
2013-04-20 07:01:00,27.0,11.0,-100.00,WNW,302,2.0,5.0,52,0.00,,,0.00,4.000000,,2013-04-20 15:01:00,
2013-04-20 07:11:00,27.0,11.0,-100.00,WNW,302,2.0,5.0,52,0.00,,,0.00,4.000000,,2013-04-20 15:11:00,
2013-04-20 07:21:00,27.0,11.0,-100.00,WNW,302,2.0,5.0,52,0.00,,,0.00,4.000000,,2013-04-20 15:21:00,
2013-04-20 07:43:00,27.0,10.0,-100.00,WNW,286,2.0,7.0,49,0.00,,,0.00,14.000000,,2013-04-20 15:43:00,
2013-04-20 07:53:00,27.0,10.0,-100.00,WNW,286,2.0,7.0,49,0.00,,,0.00,14.000000,,2013-04-20 15:53:00,
2013-04-20 08:03:00,27.0,10.0,-100.00,WNW,286,2.0,7.0,49,0.00,,,0.00,14.000000,,2013-04-20 16:03:00,
2013-04-20 08:12:00,27.0,10.0,-100.00,WNW,286,2.0,7.0,49,0.00,,,0.00,14.000000,,2013-04-20 16:12:00,
2013-04-20 08:23:00,27.0,10.0,-100.00,WNW,286,2.0,7.0,49,0.00,,,0.00,14.000000,,2013-04-20 16:23:00,
2013-04-20 08:42:00,27.0,11.0,-100.00,WNW,302,3.0,8.0,50,0.00,,,0.00,23.000000,,2013-04-20 16:42:00,
2013-04-20 08:53:00,27.0,11.0,-100.00,WNW,302,3.0,8.0,50,0.00,,,0.00,23.000000,,2013-04-20 16:53:00,
2013-04-20 09:02:00,27.0,11.0,-100.00,WNW,302,3.0,8.0,50,0.00,,,0.00,23.000000,,2013-04-20 17:02:00,
2013-04-20 09:11:00,27.0,11.0,-100.00,WNW,302,3.0,8.0,50,0.00,,,0.00,23.000000,,2013-04-20 17:11:00,
2013-04-20 09:22:00,27.0,11.0,-100.00,WNW,302,3.0,8.0,50,0.00,,,0.00,23.000000,,2013-04-20 17:22:00,
2013-04-20 09:42:00,28.0,11.0,-100.00,WNW,289,3.0,6.0,47,0.00,,,0.00,42.000000,,2013-04-20 17:42:00,
2013-04-20 09:52:00,28.0,11.0,-100.00,WNW,289,3.0,6.0,47,0.00,,,0.00,42.000000,,2013-04-20 17:52:00,
2013-04-20 10:02:00,28.0,11.0,-100.00,WNW,289,3.0,6.0,47,0.00,,,0.00,42.000000,,2013-04-20 18:02:00,
2013-04-20 10:12:00,28.0,11.0,-100.00,WNW,289,3.0,6.0,47,0.00,,,0.00,42.000000,,2013-04-20 18:12:00,
2013-04-20 10:22:00,28.0,11.0,-100.00,WNW,289,3.0,6.0,47,0.00,,,0.00,42.000000,,2013-04-20 18:22:00,
2013-04-20 10:42:00,32.0,11.0,-100.00,WNW,293,4.0,8.0,41,0.00,,,0.00,256.000000,,2013-04-20 18:42:00,
2013-04-20 10:52:00,32.0,11.0,-100.00,WNW,293,4.0,8.0,41,0.00,,,0.00,256.000000,,2013-04-20 18:52:00,
2013-04-20 11:01:00,32.0,11.0,-100.00,WNW,293,4.0,8.0,41,0.00,,,0.00,256.000000,,2013-04-20 19:01:00,
2013-04-20 11:11:00,32.0,11.0,-100.00,WNW,293,4.0,8.0,41,0.00,,,0.00,256.000000,,2013-04-20 19:11:00,
2013-04-20 11:21:00,32.0,11.0,-100.00,WNW,293,4.0,8.0,41,0.00,,,0.00,256.000000,,2013-04-20 19:21:00,
2013-04-20 11:42:00,34.0,8.0,-100.00,WNW,296,3.0,9.0,33,0.00,,,0.00,512.000000,,2013-04-20 19:42:00,
2013-04-20 11:52:00,34.0,8.0,-100.00,WNW,296,3.0,9.0,33,0.00,,,0.00,512.000000,,2013-04-20 19:52:00,
2013-04-20 12:02:00,34.0,8.0,-100.00,WNW,296,3.0,9.0,33,0.00,,,0.00,512.000000,,2013-04-20 20:02:00,
2013-04-20 12:11:00,34.0,8.0,-100.00,WNW,296,3.0,9.0,33,0.00,,,0.00,512.000000,,2013-04-20 20:11:00,
2013-04-20 12:21:00,34.0,8.0,-100.00,WNW,296,3.0,9.0,33,0.00,,,0.00,512.000000,,2013-04-20 20:21:00,
2013-04-20 12:42:00,37.0,10.0,-100.00,WNW,297,4.0,8.0,31,0.00,,,0.00,616.000000,,2013-04-20 20:42:00,
2013-04-20 12:52:00,37.0,10.0,-100.00,WNW,297,4.0,8.0,31,0.00,,,0.00,616.000000,,2013-04-20 20:52:00,
2013-04-20 13:01:00,37.0,10.0,-100.00,WNW,297,4.0,8.0,31,0.00,,,0.00,616.000000,,2013-04-20 21:01:00,
2013-04-20 13:12:00,37.0,10.0,-100.00,WNW,297,4.0,8.0,31,0.00,,,0.00,616.000000,,2013-04-20 21:12:00,
2013-04-20 13:21:00,37.0,10.0,-100.00,WNW,297,4.0,8.0,31,0.00,,,0.00,616.000000,,2013-04-20 21:21:00,
2013-04-20 13:43:00,39.0,10.0,-100.00,WNW,298,4.0,8.0,30,0.00,,,0.00,657.000000,,2013-04-20 21:43:00,
2013-04-20 13:53:00,39.0,10.0,-100.00,WNW,298,4.0,8.0,30,0.00,,,0.00,657.000000,,2013-04-20 21:53:00,
2013-04-20 14:02:00,39.0,10.0,-100.00,WNW,298,4.0,8.0,30,0.00,,,0.00,657.000000,,2013-04-20 22:02:00,
2013-04-20 14:12:00,39.0,10.0,-100.00,WNW,298,4.0,8.0,30,0.00,,,0.00,657.000000,,2013-04-20 22:12:00,
2013-04-20 14:22:00,39.0,10.0,-100.00,WNW,298,4.0,8.0,30,0.00,,,0.00,657.000000,,2013-04-20 22:22:00,
2013-04-20 14:42:00,39.0,9.0,-100.00,WNW,286,3.0,7.0,28,0.00,,,0.00,662.000000,,2013-04-20 22:42:00,
2013-04-20 14:52:00,39.0,9.0,-100.00,WNW,286,3.0,7.0,28,0.00,,,0.00,662.000000,,2013-04-20 22:52:00,
2013-04-20 15:02:00,39.0,9.0,-100.00,WNW,286,3.0,7.0,28,0.00,,,0.00,662.000000,,2013-04-20 23:02:00,
2013-04-20 15:11:00,39.0,9.0,-100.00,WNW,286,3.0,7.0,28,0.00,,,0.00,662.000000,,2013-04-20 23:11:00,
2013-04-20 15:22:00,39.0,9.0,-100.00,WNW,286,3.0,7.0,28,0.00,,,0.00,662.000000,,2013-04-20 23:22:00,
2013-04-20 15:42:00,41.0,10.0,-100.00,WNW,282,3.0,6.0,27,0.00,,,0.00,627.000000,,2013-04-20 23:42:00,
2013-04-20 15:52:00,41.0,10.0,-100.00,WNW,282,3.0,6.0,27,0.00,,,0.00,627.000000,,2013-04-20 23:52:00,
2013-04-20 16:01:00,41.0,10.0,-100.00,WNW,282,3.0,6.0,27,0.00,,,0.00,627.000000,,2013-04-21 00:01:00,
2013-04-20 16:11:00,41.0,10.0,-100.00,WNW,282,3.0,6.0,27,0.00,,,0.00,627.000000,,2013-04-21 00:11:00,
2013-04-20 16:21:00,41.0,10.0,-100.00,WNW,282,3.0,6.0,27,0.00,,,0.00,627.000000,,2013-04-21 00:21:00,
2013-04-20 16:42:00,41.0,10.0,-100.00,West,262,2.0,5.0,27,0.00,,,0.00,564.000000,,2013-04-21 00:42:00,
2013-04-20 16:52:00,41.0,10.0,-100.00,West,262,2.0,5.0,27,0.00,,,0.00,564.000000,,2013-04-21 00:52:00,
2013-04-20 17:01:00,41.0,10.0,-100.00,West,262,2.0,5.0,27,0.00,,,0.00,564.000000,,2013-04-21 01:01:00,
2013-04-20 17:11:00,41.0,10.0,-100.00,West,262,2.0,5.0,27,0.00,,,0.00,564.000000,,2013-04-21 01:11:00,
2013-04-20 17:21:00,41.0,10.0,-100.00,West,262,2.0,5.0,27,0.00,,,0.00,564.000000,,2013-04-21 01:21:00,
2013-04-20 17:42:00,39.0,12.0,-100.00,West,270,2.0,4.0,32,0.00,,,0.00,342.000000,,2013-04-21 01:42:00,
2013-04-20 17:52:00,39.0,12.0,-100.00,West,270,2.0,4.0,32,0.00,,,0.00,342.000000,,2013-04-21 01:52:00,
2013-04-20 18:01:00,39.0,12.0,-100.00,West,270,2.0,4.0,32,0.00,,,0.00,342.000000,,2013-04-21 02:01:00,
2013-04-20 18:11:00,39.0,12.0,-100.00,West,270,2.0,4.0,32,0.00,,,0.00,342.000000,,2013-04-21 02:11:00,
2013-04-20 18:21:00,39.0,12.0,-100.00,West,270,2.0,4.0,32,0.00,,,0.00,342.000000,,2013-04-21 02:21:00,
2013-04-20 18:42:00,36.0,15.0,-100.00,NW,307,1.0,3.0,42,0.00,,,0.00,43.000000,,2013-04-21 02:42:00,
2013-04-20 18:52:00,36.0,15.0,-100.00,NW,307,1.0,3.0,42,0.00,,,0.00,43.000000,,2013-04-21 02:52:00,
2013-04-20 19:01:00,36.0,15.0,-100.00,NW,307,1.0,3.0,42,0.00,,,0.00,43.000000,,2013-04-21 03:01:00,
2013-04-20 19:11:00,36.0,15.0,-100.00,NW,307,1.0,3.0,42,0.00,,,0.00,43.000000,,2013-04-21 03:11:00,
2013-04-20 19:21:00,36.0,15.0,-100.00,NW,307,1.0,3.0,42,0.00,,,0.00,43.000000,,2013-04-21 03:21:00,
2013-04-20 19:42:00,32.0,20.0,-100.00,NNW,327,0.0,1.0,60,0.00,,,0.00,29.000000,,2013-04-21 03:42:00,
2013-04-20 19:52:00,32.0,20.0,-100.00,NNW,327,0.0,1.0,60,0.00,,,0.00,29.000000,,2013-04-21 03:52:00,
2013-04-20 20:22:00,32.0,20.0,-100.00,NNW,327,0.0,1.0,60,0.00,,,0.00,29.000000,,2013-04-21 04:22:00,
2013-04-20 20:42:00,30.0,23.0,-100.00,West,278,0.0,1.0,74,0.00,,,0.00,14.000000,,2013-04-21 04:42:00,
2013-04-20 20:53:00,30.0,23.0,-100.00,West,278,0.0,1.0,74,0.00,,,0.00,14.000000,,2013-04-21 04:53:00,
2013-04-20 21:02:00,30.0,23.0,-100.00,West,278,0.0,1.0,74,0.00,,,0.00,14.000000,,2013-04-21 05:02:00,
2013-04-20 21:12:00,30.0,23.0,-100.00,West,278,0.0,1.0,74,0.00,,,0.00,14.000000,,2013-04-21 05:12:00,
2013-04-20 21:21:00,30.0,23.0,-100.00,West,278,0.0,1.0,74,0.00,,,0.00,14.000000,,2013-04-21 05:21:00,
2013-04-20 21:43:00,28.0,23.0,-100.00,West,278,0.0,1.0,80,0.00,,,0.00,2.000000,,2013-04-21 05:43:00,
2013-04-20 21:52:00,28.0,23.0,-100.00,West,278,0.0,1.0,80,0.00,,,0.00,2.000000,,2013-04-21 05:52:00,
2013-04-20 22:01:00,28.0,23.0,-100.00,West,278,0.0,1.0,80,0.00,,,0.00,2.000000,,2013-04-21 06:01:00,
2013-04-20 22:12:00,28.0,23.0,-100.00,West,278,0.0,1.0,80,0.00,,,0.00,2.000000,,2013-04-21 06:12:00,
2013-04-20 22:21:00,28.0,23.0,-100.00,West,278,0.0,1.0,80,0.00,,,0.00,2.000000,,2013-04-21 06:21:00,
2013-04-20 22:42:00,27.0,22.0,-100.00,West,278,0.0,1.0,81,0.00,,,0.00,0.000000,,2013-04-21 06:42:00,
2013-04-20 22:52:00,27.0,22.0,-100.00,West,278,0.0,1.0,81,0.00,,,0.00,0.000000,,2013-04-21 06:52:00,
2013-04-20 23:01:00,27.0,22.0,-100.00,West,278,0.0,1.0,81,0.00,,,0.00,0.000000,,2013-04-21 07:01:00,
2013-04-20 23:11:00,27.0,22.0,-100.00,West,278,0.0,1.0,81,0.00,,,0.00,0.000000,,2013-04-21 07:11:00,
2013-04-20 23:21:00,27.0,22.0,-100.00,West,278,0.0,1.0,81,0.00,,,0.00,0.000000,,2013-04-21 07:21:00,
2013-04-20 23:42:00,25.0,20.0,-100.00,West,278,0.0,1.0,83,0.00,,,0.00,0.000000,,2013-04-21 07:42:00,
2013-04-20 23:52:00,25.0,20.0,-100.00,West,278,0.0,1.0,83,0.00,,,0.00,0.000000,,2013-04-21 07:52:00,